sat.trackr.live / text

‹ back to catalog

STARLINK-34495

NORAD 64428 · 2025-129S

PAYLOAD ACTIVE UNKNOWN

§ Identity

Operator
Country
US
Launch date
2025-06-17
Launch site
AFWTR
Launch vehicle
Mass (kg)
RCS (m²)

Purposes: comms

External: N2YO · Heavens-Above · Gunter

§ Orbital elements

Epoch: 2026-09-20T12:45:09.421920Z

Period
94.14 min
Inclination
70.0005°
Eccentricity
0.0003580
Mean motion
15.29566570 rev/d
Perigee alt
474.7 km
Apogee alt
479.6 km
Semi-major
6,855.2 km
B*
2.8311e-4
RAAN
300.7641°
Arg perigee
274.9442°
Mean anomaly
85.1324°
Rev number
7,053

§ Raw data

STARLINK-344951 64428U 25129S   26263.53135905  .00008016  00000+0  28311-3 0  99952 64428  70.0005 300.7641 0003580 274.9442  85.1324 15.29566570 70531

JSON: /api/v1/satellites/64428 · /tle

For live sub-satellite position, see the globe view (requires WebGL).

§ Visibility from observer

Set your observer location to see the next 7 days of passes ≥ 10°. The values pass through the URL so the page stays shareable.

No JS? Fill the form by hand. The geolocation button needs JavaScript.